Tracking 27419 objects as of 10-Jun-2023
HD Live streaming from Space Station
objects crossing your sky now

FREGAT DEB

Track FREGAT DEB now!
10-day predictions


NORAD ID: 45822
Int'l Code: 2011-037BG
Perigee: 530.1 km
Apogee: 3,083.1 km
Inclination: 51.5 °
Period: 122.7 minutes
Semi major axis: 8177 km
RCS: Unknown
Launch date: July 18, 2011
Source: Commonwealth of Independent States (former USSR) (CIS)
Launch site: TYURATAM MISSILE AND SPACE COMPLEX (TTMTR)

Note: This is SATELLITE DEBRIS
Your satellite tracking list
Your tracking list is empty




NASA's NSSDC Master Catalog

Two Line Element Set (TLE):
1 45822U 11037BG  23160.62692282  .00065078  00000-0  28638-1 0  9996
2 45822  51.4817  28.7730 1561009  43.5083 327.8797 11.73989236126619
Source of the keplerian elements: AFSPC